Time,TemperatureF,DewpointF,PressureIn,WindDirection,WindDirectionDegrees,WindSpeedMPH,WindSpeedGustMPH,Humidity,HourlyPrecipIn,Conditions,Clouds,dailyrainin,SolarRadiationWatts/m^2,SoftwareType,DateUTC
2013-11-28 00:02:00,22.8,20.0,30.43,NNW,330,0.0,0.0,89,0.00,FEW,,0.00,0.0,WeatherDisplay:10.37,2013-11-27 23:02:00,
2013-11-28 00:07:00,22.8,20.0,30.43,NNW,330,0.0,0.0,89,0.00,FEW,,0.00,0.0,WeatherDisplay:10.37,2013-11-27 23:07:00,
2013-11-28 00:12:00,22.7,19.9,30.43,NNW,330,0.0,0.0,89,0.00,FEW,,0.00,0.0,WeatherDisplay:10.37,2013-11-27 23:12:00,
2013-11-28 00:17:00,22.6,19.8,30.43,NNW,330,0.0,0.0,89,0.00,FEW,,0.00,0.0,WeatherDisplay:10.37,2013-11-27 23:17:00,
2013-11-28 00:22:00,22.5,19.7,30.43,NNW,330,0.0,0.0,89,0.00,FEW,,0.00,0.0,WeatherDisplay:10.37,2013-11-27 23:22:00,
2013-11-28 00:27:00,22.4,19.6,30.43,NNW,330,0.0,0.0,89,0.00,FEW,,0.00,0.0,WeatherDisplay:10.37,2013-11-27 23:27:00,
2013-11-28 00:32:00,22.3,19.8,30.43,NNW,330,0.0,0.0,90,0.00,FEW,,0.00,0.0,WeatherDisplay:10.37,2013-11-27 23:32:00,
2013-11-28 00:37:00,22.2,19.7,30.43,NNW,330,0.0,0.0,90,0.00,FEW,,0.00,0.0,WeatherDisplay:10.37,2013-11-27 23:37:00,
2013-11-28 00:42:00,22.1,19.4,30.43,NNW,330,0.0,0.0,89,0.00,FEW,,0.00,0.0,WeatherDisplay:10.37,2013-11-27 23:42:00,
2013-11-28 00:47:00,22.0,19.5,30.43,NNW,330,0.0,0.0,90,0.00,FEW,,0.00,0.0,WeatherDisplay:10.37,2013-11-27 23:47:00,
2013-11-28 00:52:00,22.0,19.5,30.43,NNW,330,0.0,0.0,90,0.00,FEW,,0.00,0.0,WeatherDisplay:10.37,2013-11-27 23:52:00,
2013-11-28 00:57:00,22.0,19.5,30.43,NNW,330,0.0,0.0,90,0.00,FEW,,0.00,0.0,WeatherDisplay:10.37,2013-11-27 23:57:00,
2013-11-28 01:02:00,21.9,19.4,30.43,NNW,330,0.0,0.0,90,0.00,FEW,,0.00,0.0,WeatherDisplay:10.37,2013-11-28 00:02:00,
2013-11-28 01:07:00,21.9,19.4,30.43,NNW,330,0.0,0.0,90,0.00,FEW,,0.00,0.0,WeatherDisplay:10.37,2013-11-28 00:07:00,
2013-11-28 01:12:00,21.8,19.3,30.43,NNW,330,0.0,0.0,90,0.00,FEW,,0.00,0.0,WeatherDisplay:10.37,2013-11-28 00:12:00,
2013-11-28 01:17:00,21.7,19.2,30.43,NNW,330,0.0,0.0,90,0.00,FEW,,0.00,0.0,WeatherDisplay:10.37,2013-11-28 00:17:00,
2013-11-28 01:22:00,21.6,19.1,30.43,NNW,330,0.0,0.0,90,0.00,FEW,,0.00,0.0,WeatherDisplay:10.37,2013-11-28 00:22:00,
2013-11-28 01:27:00,21.5,19.0,30.43,NNW,330,0.0,0.0,90,0.00,FEW,,0.00,0.0,WeatherDisplay:10.37,2013-11-28 00:27:00,
2013-11-28 01:32:00,21.4,18.9,30.43,NNW,330,0.0,0.0,90,0.00,FEW,,0.00,0.0,WeatherDisplay:10.37,2013-11-28 00:32:00,
2013-11-28 01:37:00,21.3,18.8,30.43,NNW,330,0.0,0.0,90,0.00,FEW,,0.00,0.0,WeatherDisplay:10.37,2013-11-28 00:37:00,
2013-11-28 01:42:00,21.2,18.7,30.43,NNW,330,0.0,0.0,90,0.00,FEW,,0.00,0.0,WeatherDisplay:10.37,2013-11-28 00:42:00,
2013-11-28 01:47:00,21.1,18.6,30.43,NNW,330,0.0,0.0,90,0.00,FEW,,0.00,0.0,WeatherDisplay:10.37,2013-11-28 00:47:00,
2013-11-28 01:52:00,21.0,18.5,30.43,NNW,330,0.0,0.0,90,0.00,FEW,,0.00,0.0,WeatherDisplay:10.37,2013-11-28 00:52:00,
2013-11-28 01:57:00,21.0,18.5,30.43,NNW,330,0.0,0.0,90,0.00,FEW,,0.00,0.0,WeatherDisplay:10.37,2013-11-28 00:57:00,
2013-11-28 02:02:00,21.1,18.9,30.43,NNW,330,0.0,0.0,91,0.00,FEW,,0.00,0.0,WeatherDisplay:10.37,2013-11-28 01:02:00,
2013-11-28 02:07:00,21.3,19.1,30.43,NNW,330,0.0,0.0,91,0.00,FEW,,0.00,0.0,WeatherDisplay:10.37,2013-11-28 01:07:00,
2013-11-28 02:12:00,21.4,19.2,30.43,NNW,330,0.0,0.0,91,0.00,FEW,,0.00,0.0,WeatherDisplay:10.37,2013-11-28 01:12:00,
2013-11-28 02:17:00,21.4,19.2,30.43,NNW,330,0.0,0.0,91,0.00,FEW,,0.00,0.0,WeatherDisplay:10.37,2013-11-28 01:17:00,
2013-11-28 02:22:00,21.5,19.3,30.43,NNW,330,0.0,0.0,91,0.00,FEW,,0.00,0.0,WeatherDisplay:10.37,2013-11-28 01:22:00,
2013-11-28 02:27:00,21.4,19.2,30.43,NNW,330,0.0,0.0,91,0.00,FEW,,0.00,0.0,WeatherDisplay:10.37,2013-11-28 01:27:00,
2013-11-28 02:32:00,21.3,19.1,30.43,NNW,330,0.0,0.0,91,0.00,FEW,,0.00,0.0,WeatherDisplay:10.37,2013-11-28 01:32:00,
2013-11-28 02:37:00,21.2,18.7,30.42,NNW,330,0.0,0.0,90,0.00,FEW,,0.00,0.0,WeatherDisplay:10.37,2013-11-28 01:37:00,
2013-11-28 02:42:00,21.1,18.9,30.43,NNW,330,0.0,0.0,91,0.00,FEW,,0.00,0.0,WeatherDisplay:10.37,2013-11-28 01:42:00,
2013-11-28 02:47:00,21.0,18.5,30.42,NNW,330,0.0,0.0,90,0.00,FEW,,0.00,0.0,WeatherDisplay:10.37,2013-11-28 01:47:00,
2013-11-28 02:52:00,20.9,18.7,30.42,NNW,330,0.0,0.0,91,0.00,FEW,,0.00,0.0,WeatherDisplay:10.37,2013-11-28 01:52:00,
2013-11-28 02:57:00,20.8,18.6,30.43,NNW,330,0.0,0.0,91,0.00,FEW,,0.00,0.0,WeatherDisplay:10.37,2013-11-28 01:57:00,
2013-11-28 03:02:00,20.7,18.5,30.43,NNW,330,0.0,0.0,91,0.00,FEW,,0.00,0.0,WeatherDisplay:10.37,2013-11-28 02:02:00,
2013-11-28 03:07:00,20.6,18.4,30.42,NNW,330,0.0,0.0,91,0.00,FEW,,0.00,0.0,WeatherDisplay:10.37,2013-11-28 02:07:00,
2013-11-28 03:12:00,20.4,17.9,30.42,NNW,330,0.4,1.0,90,0.00,FEW,,0.00,0.0,WeatherDisplay:10.37,2013-11-28 02:12:00,
2013-11-28 03:17:00,20.3,17.8,30.42,NNW,330,0.0,0.0,90,0.00,FEW,,0.00,0.0,WeatherDisplay:10.37,2013-11-28 02:17:00,
2013-11-28 03:22:00,20.3,18.1,30.42,NNW,330,0.0,0.0,91,0.00,FEW,,0.00,0.0,WeatherDisplay:10.37,2013-11-28 02:22:00,
2013-11-28 03:27:00,20.2,18.0,30.42,NNW,330,0.0,0.0,91,0.00,FEW,,0.00,0.0,WeatherDisplay:10.37,2013-11-28 02:27:00,
2013-11-28 03:32:00,20.2,18.0,30.42,NNW,330,0.0,0.0,91,0.00,FEW,,0.00,0.0,WeatherDisplay:10.37,2013-11-28 02:32:00,
2013-11-28 03:37:00,20.2,18.0,30.42,NNW,330,0.0,0.0,91,0.00,FEW,,0.00,0.0,WeatherDisplay:10.37,2013-11-28 02:37:00,
2013-11-28 03:42:00,20.1,17.9,30.42,NNW,330,0.0,0.0,91,0.00,FEW,,0.00,0.0,WeatherDisplay:10.37,2013-11-28 02:42:00,
2013-11-28 03:47:00,20.1,17.9,30.42,NNW,330,0.0,0.0,91,0.00,FEW,,0.00,0.0,WeatherDisplay:10.37,2013-11-28 02:47:00,
2013-11-28 03:52:00,20.1,17.9,30.41,NNW,330,0.0,0.0,91,0.00,FEW,,0.00,0.0,WeatherDisplay:10.37,2013-11-28 02:52:00,
2013-11-28 03:57:00,20.1,17.9,30.41,NNW,330,0.0,0.0,91,0.00,FEW,,0.00,0.0,WeatherDisplay:10.37,2013-11-28 02:57:00,
2013-11-28 04:02:00,20.1,17.9,30.41,NNW,330,0.0,0.0,91,0.00,FEW,,0.00,0.0,WeatherDisplay:10.37,2013-11-28 03:02:00,
2013-11-28 04:07:00,20.0,17.8,30.41,NNW,330,0.0,0.0,91,0.00,FEW,,0.00,0.0,WeatherDisplay:10.37,2013-11-28 03:07:00,
2013-11-28 04:12:00,20.0,17.8,30.41,NNW,330,0.0,0.0,91,0.00,FEW,,0.00,0.0,WeatherDisplay:10.37,2013-11-28 03:12:00,
2013-11-28 04:17:00,19.9,17.7,30.41,NNW,330,0.0,0.0,91,0.00,FEW,,0.00,0.0,WeatherDisplay:10.37,2013-11-28 03:17:00,
2013-11-28 04:22:00,19.9,17.7,30.42,NNW,330,0.0,0.0,91,0.00,FEW,,0.00,0.0,WeatherDisplay:10.37,2013-11-28 03:22:00,
2013-11-28 04:27:00,19.8,17.6,30.42,NNW,330,0.0,0.0,91,0.00,FEW,,0.00,0.0,WeatherDisplay:10.37,2013-11-28 03:27:00,
2013-11-28 04:32:00,19.7,17.5,30.42,NNW,330,0.0,0.0,91,0.00,FEW,,0.00,0.0,WeatherDisplay:10.37,2013-11-28 03:32:00,
2013-11-28 04:37:00,19.6,17.4,30.42,NNW,330,0.0,0.0,91,0.00,FEW,,0.00,0.0,WeatherDisplay:10.37,2013-11-28 03:37:00,
2013-11-28 04:42:00,19.6,17.4,30.42,NNW,330,0.0,0.0,91,0.00,FEW,,0.00,0.0,WeatherDisplay:10.37,2013-11-28 03:42:00,
2013-11-28 04:47:00,19.6,17.4,30.42,NNW,330,0.0,0.0,91,0.00,FEW,,0.00,0.0,WeatherDisplay:10.37,2013-11-28 03:47:00,
2013-11-28 04:52:00,19.6,17.4,30.42,NNW,330,0.0,0.0,91,0.00,FEW,,0.00,0.0,WeatherDisplay:10.37,2013-11-28 03:52:00,
2013-11-28 04:57:00,19.6,17.4,30.42,NNW,330,0.0,0.0,91,0.00,FEW,,0.00,0.0,WeatherDisplay:10.37,2013-11-28 03:57:00,
2013-11-28 05:02:00,19.6,17.4,30.42,NNW,330,0.0,0.0,91,0.00,FEW,,0.00,0.0,WeatherDisplay:10.37,2013-11-28 04:02:00,
2013-11-28 05:07:00,19.6,17.4,30.42,NNW,330,0.0,0.0,91,0.00,FEW,,0.00,0.0,WeatherDisplay:10.37,2013-11-28 04:07:00,
2013-11-28 05:12:00,19.6,17.4,30.42,NNW,330,0.0,0.0,91,0.00,FEW,,0.00,0.0,WeatherDisplay:10.37,2013-11-28 04:12:00,
2013-11-28 05:17:00,19.5,17.3,30.42,NNW,330,0.0,0.0,91,0.00,FEW,,0.00,0.0,WeatherDisplay:10.37,2013-11-28 04:17:00,
2013-11-28 05:22:00,19.4,17.2,30.42,NNW,330,0.0,0.0,91,0.00,FEW,,0.00,0.0,WeatherDisplay:10.37,2013-11-28 04:22:00,
2013-11-28 05:27:00,19.4,17.2,30.42,NNW,330,0.0,0.0,91,0.00,FEW,,0.00,0.0,WeatherDisplay:10.37,2013-11-28 04:27:00,
2013-11-28 05:32:00,19.3,17.1,30.42,NNW,330,0.0,0.0,91,0.00,FEW,,0.00,0.0,WeatherDisplay:10.37,2013-11-28 04:32:00,
2013-11-28 05:37:00,19.2,17.0,30.42,NNW,330,0.1,1.2,91,0.00,FEW,,0.00,0.0,WeatherDisplay:10.37,2013-11-28 04:37:00,
2013-11-28 05:42:00,19.2,17.0,30.41,NNW,330,0.2,1.2,91,0.00,FEW,,0.00,0.0,WeatherDisplay:10.37,2013-11-28 04:42:00,
2013-11-28 05:47:00,19.2,17.0,30.41,NNW,330,0.0,0.0,91,0.00,FEW,,0.00,0.0,WeatherDisplay:10.37,2013-11-28 04:47:00,
2013-11-28 05:52:00,19.2,17.3,30.41,NNW,330,0.0,0.0,92,0.00,FEW,,0.00,0.0,WeatherDisplay:10.37,2013-11-28 04:52:00,
2013-11-28 05:57:00,19.2,17.3,30.41,NNW,330,0.0,0.0,92,0.00,FEW,,0.00,0.0,WeatherDisplay:10.37,2013-11-28 04:57:00,
2013-11-28 06:01:00,19.2,17.3,30.41,NNW,330,0.0,0.0,92,0.00,FEW,,0.00,0.0,WeatherDisplay:10.37,2013-11-28 05:01:00,
2013-11-28 06:02:00,19.2,17.3,30.41,NNW,330,0.0,0.0,92,0.00,FEW,,0.00,0.0,WeatherDisplay:10.37,2013-11-28 05:02:00,
2013-11-28 06:03:00,19.2,17.3,30.41,NNW,330,0.0,0.0,92,0.00,FEW,,0.00,0.0,WeatherDisplay:10.37,2013-11-28 05:03:00,
2013-11-28 06:05:00,19.2,17.3,30.41,NNW,330,0.0,0.0,92,0.00,FEW,,0.00,0.0,WeatherDisplay:10.37,2013-11-28 05:05:00,
2013-11-28 06:06:00,19.2,17.3,30.41,NNW,330,0.0,0.0,92,0.00,FEW,,0.00,0.0,WeatherDisplay:10.37,2013-11-28 05:06:00,
2013-11-28 06:11:00,19.3,17.4,30.41,NNW,330,0.0,0.0,92,0.00,FEW,,0.00,0.0,WeatherDisplay:10.37,2013-11-28 05:11:00,
2013-11-28 06:13:00,19.4,17.5,30.41,NNW,330,0.0,0.0,92,0.00,FEW,,0.00,0.0,WeatherDisplay:10.37,2013-11-28 05:13:00,
2013-11-28 06:18:00,19.5,17.6,30.41,NNW,330,0.0,1.2,92,0.00,FEW,,0.00,0.0,WeatherDisplay:10.37,2013-11-28 05:18:00,
2013-11-28 06:23:00,19.5,17.6,30.41,NNW,330,0.0,0.0,92,0.00,FEW,,0.00,0.0,WeatherDisplay:10.37,2013-11-28 05:23:00,
2013-11-28 06:28:00,19.5,17.6,30.41,NNW,330,0.0,0.0,92,0.00,FEW,,0.00,0.0,WeatherDisplay:10.37,2013-11-28 05:28:00,
2013-11-28 06:33:00,19.5,17.6,30.41,NNW,330,0.0,0.0,92,0.00,FEW,,0.00,0.0,WeatherDisplay:10.37,2013-11-28 05:33:00,
2013-11-28 06:38:00,19.5,17.6,30.41,NNW,330,0.0,0.0,92,0.00,FEW,,0.00,0.0,WeatherDisplay:10.37,2013-11-28 05:38:00,
2013-11-28 06:43:00,19.4,17.2,30.41,NNW,330,0.0,0.0,91,0.00,FEW,,0.00,0.0,WeatherDisplay:10.37,2013-11-28 05:43:00,
2013-11-28 06:48:00,19.3,17.1,30.41,NNW,330,0.0,0.0,91,0.00,FEW,,0.00,0.0,WeatherDisplay:10.37,2013-11-28 05:48:00,
2013-11-28 06:53:00,19.2,17.3,30.41,NNW,330,0.0,0.0,92,0.00,FEW,,0.00,0.0,WeatherDisplay:10.37,2013-11-28 05:53:00,
2013-11-28 06:58:00,19.1,17.2,30.41,NNW,330,0.0,0.0,92,0.00,FEW,,0.00,0.0,WeatherDisplay:10.37,2013-11-28 05:58:00,
2013-11-28 07:03:00,19.1,17.2,30.41,NNW,330,0.0,0.0,92,0.00,FEW,,0.00,0.0,WeatherDisplay:10.37,2013-11-28 06:03:00,
2013-11-28 07:08:00,19.1,17.2,30.41,NNW,330,0.0,0.0,92,0.00,FEW,,0.00,0.0,WeatherDisplay:10.37,2013-11-28 06:08:00,
2013-11-28 07:13:00,19.1,17.2,30.41,NNW,330,0.0,0.0,92,0.00,FEW,,0.00,5.0,WeatherDisplay:10.37,2013-11-28 06:13:00,
2013-11-28 07:18:00,19.0,17.1,30.41,NNW,330,0.0,0.0,92,0.00,FEW,,0.00,7.0,WeatherDisplay:10.37,2013-11-28 06:18:00,
2013-11-28 07:23:00,19.1,17.2,30.41,NNW,330,0.0,0.0,92,0.00,FEW,,0.00,9.0,WeatherDisplay:10.37,2013-11-28 06:23:00,
2013-11-28 07:28:00,19.1,17.2,30.41,NNW,330,0.0,0.0,92,0.00,FEW,,0.00,12.0,WeatherDisplay:10.37,2013-11-28 06:28:00,
2013-11-28 07:33:00,19.1,17.2,30.42,NNW,330,0.0,0.0,92,0.00,FEW,,0.00,14.0,WeatherDisplay:10.37,2013-11-28 06:33:00,
2013-11-28 07:38:00,19.1,17.2,30.42,NNW,330,0.0,0.0,92,0.00,FEW,,0.00,16.0,WeatherDisplay:10.37,2013-11-28 06:38:00,
2013-11-28 07:43:00,19.2,17.3,30.41,NNW,330,0.0,0.0,92,0.00,FEW,,0.00,18.0,WeatherDisplay:10.37,2013-11-28 06:43:00,
2013-11-28 07:48:00,19.3,17.4,30.41,NNW,330,0.0,0.0,92,0.00,FEW,,0.00,21.0,WeatherDisplay:10.37,2013-11-28 06:48:00,
2013-11-28 07:53:00,19.4,17.5,30.42,NNW,330,0.0,0.0,92,0.00,FEW,,0.00,25.0,WeatherDisplay:10.37,2013-11-28 06:53:00,
2013-11-28 07:58:00,19.7,17.8,30.42,NNW,330,0.0,0.0,92,0.00,FEW,,0.00,28.0,WeatherDisplay:10.37,2013-11-28 06:58:00,
2013-11-28 08:03:00,20.0,18.3,30.42,NNW,330,0.0,0.0,93,0.00,FEW,,0.00,32.0,WeatherDisplay:10.37,2013-11-28 07:03:00,
2013-11-28 08:08:00,20.4,18.7,30.42,NNW,330,0.0,0.0,93,0.00,BKN,,0.00,35.0,WeatherDisplay:10.37,2013-11-28 07:08:00,
2013-11-28 08:13:00,20.9,19.2,30.41,NNW,330,0.0,0.0,93,0.00,BKN,,0.00,40.0,WeatherDisplay:10.37,2013-11-28 07:13:00,
2013-11-28 08:18:00,21.5,19.8,30.41,NNW,330,0.0,0.0,93,0.00,SCT,,0.00,46.0,WeatherDisplay:10.37,2013-11-28 07:18:00,
2013-11-28 08:23:00,22.0,20.5,30.42,NNW,330,0.0,0.0,94,0.00,SCT,,0.00,51.0,WeatherDisplay:10.37,2013-11-28 07:23:00,
2013-11-28 08:28:00,22.6,21.1,30.42,NNW,330,0.0,0.0,94,0.00,SCT,,0.00,56.0,WeatherDisplay:10.37,2013-11-28 07:28:00,
2013-11-28 08:33:00,23.2,21.5,30.41,NNW,330,0.0,0.0,93,0.00,SCT,,0.00,65.0,WeatherDisplay:10.37,2013-11-28 07:33:00,
2013-11-28 08:38:00,23.7,22.0,30.41,West,261,1.1,2.3,93,0.00,SCT,,0.00,70.0,WeatherDisplay:10.37,2013-11-28 07:38:00,
2013-11-28 08:43:00,24.1,22.4,30.41,SW,230,1.8,3.0,93,0.00,SCT,,0.00,77.0,WeatherDisplay:10.37,2013-11-28 07:43:00,
2013-11-28 08:48:00,24.6,22.9,30.41,SW,230,0.0,0.0,93,0.00,SCT,,0.00,84.0,WeatherDisplay:10.37,2013-11-28 07:48:00,
2013-11-28 08:53:00,25.1,23.4,30.40,SW,230,0.0,0.0,93,0.00,SCT,,0.00,91.0,WeatherDisplay:10.37,2013-11-28 07:53:00,
2013-11-28 08:58:00,25.7,24.0,30.41,SW,230,0.0,0.0,93,0.00,SCT,,0.00,100.0,WeatherDisplay:10.37,2013-11-28 07:58:00,
2013-11-28 09:03:00,26.2,24.5,30.41,SW,230,0.0,0.0,93,0.00,SCT,,0.00,128.0,WeatherDisplay:10.37,2013-11-28 08:03:00,
2013-11-28 09:08:00,26.6,24.8,30.41,SW,231,0.0,0.0,93,0.00,FEW,,0.00,137.0,WeatherDisplay:10.37,2013-11-28 08:08:00,
2013-11-28 09:13:00,27.0,25.2,30.41,SW,230,0.1,2.0,93,0.00,FEW,,0.00,142.0,WeatherDisplay:10.37,2013-11-28 08:13:00,
2013-11-28 09:18:00,27.5,25.7,30.41,SW,231,0.1,1.0,93,0.00,CLR,,0.00,148.0,WeatherDisplay:10.37,2013-11-28 08:18:00,
2013-11-28 09:23:00,27.9,26.1,30.41,SW,230,0.0,0.0,93,0.00,CLR,,0.00,153.0,WeatherDisplay:10.37,2013-11-28 08:23:00,
2013-11-28 09:28:00,28.3,26.3,30.41,SW,231,0.0,0.0,92,0.00,CLR,,0.00,148.0,WeatherDisplay:10.37,2013-11-28 08:28:00,
2013-11-28 09:33:00,28.6,26.3,30.41,SW,230,0.0,0.0,91,0.00,CLR,,0.00,156.0,WeatherDisplay:10.37,2013-11-28 08:33:00,
2013-11-28 09:38:00,29.1,26.5,30.40,SW,230,0.0,1.2,90,0.00,CLR,,0.00,181.0,WeatherDisplay:10.37,2013-11-28 08:38:00,
2013-11-28 09:43:00,29.5,26.4,30.40,SW,231,0.0,1.2,88,0.00,CLR,,0.00,199.0,WeatherDisplay:10.37,2013-11-28 08:43:00,
2013-11-28 09:48:00,30.0,26.6,30.41,SW,230,0.0,1.2,87,0.00,CLR,,0.00,234.0,WeatherDisplay:10.37,2013-11-28 08:48:00,
2013-11-28 09:53:00,30.5,26.8,30.41,SW,230,0.0,0.0,86,0.00,CLR,,0.00,255.0,WeatherDisplay:10.37,2013-11-28 08:53:00,
2013-11-28 09:58:00,30.9,26.9,30.41,SW,229,1.2,3.0,85,0.00,CLR,,0.00,265.0,WeatherDisplay:10.37,2013-11-28 08:58:00,
2013-11-28 10:03:00,31.2,27.2,30.40,SW,229,0.0,0.0,85,0.00,CLR,,0.00,269.0,WeatherDisplay:10.37,2013-11-28 09:03:00,
2013-11-28 10:08:00,31.6,27.6,30.40,SW,227,1.6,3.0,85,0.00,CLR,,0.00,269.0,WeatherDisplay:10.37,2013-11-28 09:08:00,
2013-11-28 10:13:00,32.0,27.7,30.40,West,268,2.0,4.0,84,0.00,CLR,,0.00,258.0,WeatherDisplay:10.37,2013-11-28 09:13:00,
2013-11-28 10:18:00,32.4,28.1,30.40,West,269,1.1,2.3,84,0.00,CLR,,0.00,265.0,WeatherDisplay:10.37,2013-11-28 09:18:00,
2013-11-28 10:23:00,32.6,28.0,30.40,West,269,1.1,2.3,83,0.00,CLR,,0.00,264.0,WeatherDisplay:10.37,2013-11-28 09:23:00,
2013-11-28 10:28:00,33.1,28.2,30.40,NNW,327,1.7,3.5,82,0.00,CLR,,0.00,264.0,WeatherDisplay:10.37,2013-11-28 09:28:00,
2013-11-28 10:33:00,33.3,28.4,30.40,NNW,327,0.7,2.0,82,0.00,CLR,,0.00,258.0,WeatherDisplay:10.37,2013-11-28 09:33:00,
2013-11-28 10:38:00,33.5,28.3,30.39,WNW,302,4.1,6.0,81,0.00,CLR,,0.00,257.0,WeatherDisplay:10.37,2013-11-28 09:38:00,
2013-11-28 10:43:00,33.8,28.3,30.39,WNW,296,2.2,4.6,80,0.00,CLR,,0.00,265.0,WeatherDisplay:10.37,2013-11-28 09:43:00,
2013-11-28 10:48:00,34.1,28.0,30.39,WNW,296,3.0,5.0,78,0.00,CLR,,0.00,264.0,WeatherDisplay:10.37,2013-11-28 09:48:00,
2013-11-28 10:53:00,34.3,27.8,30.39,NNW,328,1.8,5.0,77,0.00,CLR,,0.00,271.0,WeatherDisplay:10.37,2013-11-28 09:53:00,
2013-11-28 10:58:00,34.5,28.3,30.39,NW,321,3.3,5.8,78,0.00,CLR,,0.00,264.0,WeatherDisplay:10.37,2013-11-28 09:58:00,
2013-11-28 11:03:00,34.6,28.1,30.39,WNW,285,4.7,7.0,77,0.00,CLR,,0.00,271.0,WeatherDisplay:10.37,2013-11-28 10:03:00,
2013-11-28 11:08:00,34.6,28.1,30.38,NNW,333,0.9,4.6,77,0.00,CLR,,0.00,258.0,WeatherDisplay:10.37,2013-11-28 10:08:00,
2013-11-28 11:13:00,34.6,27.8,30.38,NW,317,2.6,4.6,76,0.00,CLR,,0.00,260.0,WeatherDisplay:10.37,2013-11-28 10:13:00,
2013-11-28 11:18:00,34.6,28.1,30.38,WNW,293,4.4,7.0,77,0.00,CLR,,0.00,278.0,WeatherDisplay:10.37,2013-11-28 10:18:00,
2013-11-28 11:23:00,34.7,27.6,30.38,WNW,289,3.9,5.8,75,0.00,CLR,,0.00,278.0,WeatherDisplay:10.37,2013-11-28 10:23:00,
2013-11-28 11:28:00,34.7,27.6,30.38,NNW,330,0.7,2.3,75,0.00,CLR,,0.00,288.0,WeatherDisplay:10.37,2013-11-28 10:28:00,
2013-11-28 11:33:00,34.8,27.4,30.38,West,279,4.0,9.2,74,0.00,CLR,,0.00,297.0,WeatherDisplay:10.37,2013-11-28 10:33:00,
2013-11-28 11:38:00,35.0,27.2,30.37,WNW,289,4.3,8.0,73,0.00,CLR,,0.00,294.0,WeatherDisplay:10.37,2013-11-28 10:38:00,
2013-11-28 11:43:00,35.2,27.1,30.37,WNW,284,3.9,8.1,72,0.00,CLR,,0.00,297.0,WeatherDisplay:10.37,2013-11-28 10:43:00,
2013-11-28 11:48:00,35.2,27.1,30.37,WNW,292,5.9,8.1,72,0.00,CLR,,0.00,283.0,WeatherDisplay:10.37,2013-11-28 10:48:00,
2013-11-28 11:53:00,35.4,26.9,30.36,WSW,252,4.5,9.2,71,0.00,CLR,,0.00,274.0,WeatherDisplay:10.37,2013-11-28 10:53:00,
2013-11-28 11:58:00,35.5,27.0,30.36,SW,231,3.3,6.0,71,0.00,CLR,,0.00,279.0,WeatherDisplay:10.37,2013-11-28 10:58:00,
2013-11-28 12:03:00,35.6,26.8,30.36,West,260,5.6,8.1,70,0.00,CLR,,0.00,288.0,WeatherDisplay:10.37,2013-11-28 11:03:00,
2013-11-28 12:08:00,35.8,27.0,30.36,WSW,252,5.2,9.2,70,0.00,CLR,,0.00,287.0,WeatherDisplay:10.37,2013-11-28 11:08:00,
2013-11-28 12:13:00,36.0,26.8,30.36,WNW,284,4.5,9.2,69,0.00,CLR,,0.00,285.0,WeatherDisplay:10.37,2013-11-28 11:13:00,
2013-11-28 12:18:00,36.1,26.9,30.35,West,277,5.0,7.0,69,0.00,CLR,,0.00,285.0,WeatherDisplay:10.37,2013-11-28 11:18:00,
2013-11-28 12:23:00,36.2,26.3,30.35,NW,324,4.5,8.1,67,0.00,CLR,,0.00,287.0,WeatherDisplay:10.37,2013-11-28 11:23:00,
2013-11-28 12:28:00,36.4,26.5,30.35,West,263,5.4,9.2,67,0.00,CLR,,0.00,279.0,WeatherDisplay:10.37,2013-11-28 11:28:00,
2013-11-28 12:33:00,36.6,26.3,30.34,West,265,6.1,8.0,66,0.00,CLR,,0.00,276.0,WeatherDisplay:10.37,2013-11-28 11:33:00,
2013-11-28 12:38:00,36.9,26.2,30.34,WNW,293,2.0,5.0,65,0.00,CLR,,0.00,276.0,WeatherDisplay:10.37,2013-11-28 11:38:00,
2013-11-28 12:43:00,37.0,25.9,30.34,WNW,290,6.5,11.5,64,0.00,CLR,,0.00,278.0,WeatherDisplay:10.37,2013-11-28 11:43:00,
2013-11-28 12:48:00,37.1,25.7,30.34,WNW,285,6.2,8.0,63,0.00,CLR,,0.00,281.0,WeatherDisplay:10.37,2013-11-28 11:48:00,
2013-11-28 12:53:00,37.2,25.0,30.33,West,277,6.1,10.0,61,0.00,CLR,,0.00,274.0,WeatherDisplay:10.37,2013-11-28 11:53:00,
2013-11-28 12:58:00,37.3,24.7,30.33,NW,306,6.1,10.4,60,0.00,CLR,,0.00,255.0,WeatherDisplay:10.37,2013-11-28 11:58:00,
2013-11-28 13:03:00,37.4,24.4,30.33,West,274,6.3,10.4,59,0.00,CLR,,0.00,260.0,WeatherDisplay:10.37,2013-11-28 12:03:00,
2013-11-28 13:08:00,37.6,24.6,30.33,WSW,246,4.6,10.4,59,0.00,CLR,,0.00,258.0,WeatherDisplay:10.37,2013-11-28 12:08:00,
2013-11-28 13:13:00,37.6,24.6,30.33,WNW,284,7.2,11.5,59,0.00,CLR,,0.00,253.0,WeatherDisplay:10.37,2013-11-28 12:13:00,
2013-11-28 13:18:00,37.7,24.2,30.33,WNW,298,5.3,11.5,58,0.00,CLR,,0.00,253.0,WeatherDisplay:10.37,2013-11-28 12:18:00,
2013-11-28 13:23:00,37.8,24.7,30.32,WSW,248,6.4,10.0,59,0.00,CLR,,0.00,120.0,WeatherDisplay:10.37,2013-11-28 12:23:00,
2013-11-28 13:28:00,37.7,23.8,30.32,WSW,253,5.9,11.5,57,0.00,CLR,,0.00,234.0,WeatherDisplay:10.37,2013-11-28 12:28:00,
2013-11-28 13:33:00,37.7,23.8,30.32,WSW,242,5.3,10.0,57,0.00,CLR,,0.00,223.0,WeatherDisplay:10.37,2013-11-28 12:33:00,
2013-11-28 13:38:00,37.8,23.5,30.31,West,275,7.2,15.0,56,0.00,CLR,,0.00,211.0,WeatherDisplay:10.37,2013-11-28 12:38:00,
2013-11-28 13:43:00,37.8,23.5,30.31,WSW,244,3.7,8.1,56,0.00,CLR,,0.00,202.0,WeatherDisplay:10.37,2013-11-28 12:43:00,
2013-11-28 13:48:00,38.0,23.7,30.31,West,281,7.7,11.5,56,0.00,CLR,,0.00,195.0,WeatherDisplay:10.37,2013-11-28 12:48:00,
2013-11-28 13:53:00,38.1,23.3,30.31,West,259,6.0,13.8,55,0.00,CLR,,0.00,186.0,WeatherDisplay:10.37,2013-11-28 12:53:00,
2013-11-28 13:58:00,38.2,23.4,30.31,WSW,252,8.5,16.0,55,0.00,CLR,,0.00,183.0,WeatherDisplay:10.37,2013-11-28 12:58:00,
2013-11-28 14:03:00,38.3,24.0,30.30,West,259,6.3,9.2,56,0.00,CLR,,0.00,141.0,WeatherDisplay:10.37,2013-11-28 13:03:00,
2013-11-28 14:08:00,38.4,24.1,30.30,West,274,5.8,12.7,56,0.00,CLR,,0.00,186.0,WeatherDisplay:10.37,2013-11-28 13:08:00,
2013-11-28 14:13:00,38.5,23.7,30.30,West,263,8.1,12.0,55,0.00,CLR,,0.00,192.0,WeatherDisplay:10.37,2013-11-28 13:13:00,
2013-11-28 14:18:00,38.5,23.7,30.30,WNW,298,9.2,14.0,55,0.00,CLR,,0.00,186.0,WeatherDisplay:10.37,2013-11-28 13:18:00,
2013-11-28 14:23:00,38.7,23.5,30.30,WNW,282,8.3,11.5,54,0.00,CLR,,0.00,179.0,WeatherDisplay:10.37,2013-11-28 13:23:00,
2013-11-28 14:28:00,38.8,23.1,30.30,West,273,7.1,13.8,53,0.00,CLR,,0.00,190.0,WeatherDisplay:10.37,2013-11-28 13:28:00,
2013-11-28 14:33:00,38.9,22.8,30.30,WSW,257,8.2,13.0,52,0.00,CLR,,0.00,116.0,WeatherDisplay:10.37,2013-11-28 13:33:00,
2013-11-28 14:38:00,39.0,23.3,30.30,West,265,4.1,9.2,53,0.00,CLR,,0.00,162.0,WeatherDisplay:10.37,2013-11-28 13:38:00,
2013-11-28 14:43:00,39.0,23.3,30.29,WSW,248,6.5,13.8,53,0.00,CLR,,0.00,141.0,WeatherDisplay:10.37,2013-11-28 13:43:00,
2013-11-28 14:48:00,39.1,23.8,30.29,WSW,254,5.6,10.0,54,0.00,CLR,,0.00,105.0,WeatherDisplay:10.37,2013-11-28 13:48:00,
2013-11-28 14:53:00,39.1,23.8,30.29,WSW,245,8.7,15.0,54,0.00,CLR,,0.00,51.0,WeatherDisplay:10.37,2013-11-28 13:53:00,
2013-11-28 14:58:00,39.0,23.7,30.30,WSW,240,5.9,12.7,54,0.00,SCT,,0.00,37.0,WeatherDisplay:10.37,2013-11-28 13:58:00,
2013-11-28 15:03:00,38.9,23.7,30.29,West,273,6.4,10.4,54,0.00,SCT,,0.00,30.0,WeatherDisplay:10.37,2013-11-28 14:03:00,
2013-11-28 15:08:00,38.7,23.5,30.29,West,262,6.5,11.0,54,0.00,SCT,,0.00,33.0,WeatherDisplay:10.37,2013-11-28 14:08:00,
2013-11-28 15:13:00,38.4,23.6,30.29,WSW,246,5.2,8.0,55,0.00,SCT,,0.00,26.0,WeatherDisplay:10.37,2013-11-28 14:13:00,
2013-11-28 15:18:00,38.3,24.0,30.29,SW,227,5.6,10.0,56,0.00,SCT,,0.00,21.0,WeatherDisplay:10.37,2013-11-28 14:18:00,
2013-11-28 15:23:00,38.1,23.8,30.29,West,262,3.7,11.5,56,0.00,SCT,,0.00,18.0,WeatherDisplay:10.37,2013-11-28 14:23:00,
2013-11-28 15:28:00,38.0,23.7,30.29,SW,217,4.7,8.0,56,0.00,SCT,,0.00,12.0,WeatherDisplay:10.37,2013-11-28 14:28:00,
2013-11-28 15:33:00,37.9,23.6,30.28,West,268,1.7,5.0,56,0.00,SCT,,0.00,12.0,WeatherDisplay:10.37,2013-11-28 14:33:00,
2013-11-28 15:38:00,37.9,24.0,30.28,West,268,2.2,6.9,57,0.00,SCT,,0.00,12.0,WeatherDisplay:10.37,2013-11-28 14:38:00,
2013-11-28 15:43:00,37.8,23.9,30.28,West,265,6.7,10.4,57,0.00,SCT,,0.00,9.0,WeatherDisplay:10.37,2013-11-28 14:43:00,
2013-11-28 15:48:00,37.8,23.9,30.28,West,266,2.8,6.9,57,0.00,SCT,,0.00,7.0,WeatherDisplay:10.37,2013-11-28 14:48:00,
2013-11-28 15:53:00,37.7,23.8,30.28,WSW,248,3.1,9.2,57,0.00,SCT,,0.00,7.0,WeatherDisplay:10.37,2013-11-28 14:53:00,
2013-11-28 15:58:00,37.7,24.2,30.27,WSW,240,4.5,8.1,58,0.00,SCT,,0.00,5.0,WeatherDisplay:10.37,2013-11-28 14:58:00,
2013-11-28 16:03:00,37.6,24.1,30.27,West,275,1.7,5.8,58,0.00,SCT,,0.00,0.0,WeatherDisplay:10.37,2013-11-28 15:03:00,
2013-11-28 16:08:00,37.5,24.1,30.28,WSW,240,3.5,8.1,58,0.00,SCT,,0.00,0.0,WeatherDisplay:10.37,2013-11-28 15:08:00,
2013-11-28 16:13:00,37.4,24.0,30.28,WSW,255,5.1,10.4,58,0.00,SCT,,0.00,0.0,WeatherDisplay:10.37,2013-11-28 15:13:00,
2013-11-28 16:18:00,37.4,24.0,30.28,West,263,7.8,14.0,58,0.00,SCT,,0.00,0.0,WeatherDisplay:10.37,2013-11-28 15:18:00,
2013-11-28 16:23:00,37.4,23.5,30.28,West,266,5.6,10.4,57,0.00,SCT,,0.00,0.0,WeatherDisplay:10.37,2013-11-28 15:23:00,
2013-11-28 16:28:00,37.4,23.5,30.28,NW,306,5.7,9.2,57,0.00,SCT,,0.00,0.0,WeatherDisplay:10.37,2013-11-28 15:28:00,
2013-11-28 16:33:00,37.2,23.4,30.28,WNW,284,5.2,8.1,57,0.00,SCT,,0.00,0.0,WeatherDisplay:10.37,2013-11-28 15:33:00,
2013-11-28 16:38:00,37.2,23.8,30.28,WNW,292,5.5,8.0,58,0.00,SCT,,0.00,0.0,WeatherDisplay:10.37,2013-11-28 15:38:00,
2013-11-28 16:43:00,37.1,23.7,30.28,WNW,297,2.7,8.1,58,0.00,SCT,,0.00,0.0,WeatherDisplay:10.37,2013-11-28 15:43:00,
2013-11-28 16:48:00,37.0,24.0,30.28,NW,317,5.3,10.0,59,0.00,SCT,,0.00,0.0,WeatherDisplay:10.37,2013-11-28 15:48:00,
2013-11-28 16:53:00,36.9,24.7,30.28,WNW,297,3.1,6.9,61,0.00,SCT,,0.00,0.0,WeatherDisplay:10.37,2013-11-28 15:53:00,
2013-11-28 16:58:00,36.7,25.3,30.28,West,263,5.2,9.0,63,0.00,SCT,,0.00,0.0,WeatherDisplay:10.37,2013-11-28 15:58:00,
2013-11-28 17:03:00,36.5,25.5,30.27,West,273,6.6,10.4,64,0.00,SCT,,0.00,0.0,WeatherDisplay:10.37,2013-11-28 16:03:00,
2013-11-28 17:08:00,36.3,25.7,30.27,WNW,293,7.2,11.0,65,0.00,SCT,,0.00,0.0,WeatherDisplay:10.37,2013-11-28 16:08:00,
2013-11-28 17:13:00,36.2,25.6,30.27,West,274,4.0,9.2,65,0.00,SCT,,0.00,0.0,WeatherDisplay:10.37,2013-11-28 16:13:00,
2013-11-28 17:18:00,36.0,25.7,30.27,WNW,287,6.5,11.5,66,0.00,SCT,,0.00,0.0,WeatherDisplay:10.37,2013-11-28 16:18:00,
2013-11-28 17:23:00,36.0,25.7,30.27,WNW,287,4.2,10.4,66,0.00,SCT,,0.00,0.0,WeatherDisplay:10.37,2013-11-28 16:23:00,
2013-11-28 17:28:00,35.9,26.0,30.27,WNW,302,2.8,4.6,67,0.00,SCT,,0.00,0.0,WeatherDisplay:10.37,2013-11-28 16:28:00,
2013-11-28 17:33:00,35.8,25.9,30.27,West,265,7.3,11.0,67,0.00,SCT,,0.00,0.0,WeatherDisplay:10.37,2013-11-28 16:33:00,
2013-11-28 17:38:00,35.8,26.3,30.26,WSW,246,6.7,13.0,68,0.00,SCT,,0.00,0.0,WeatherDisplay:10.37,2013-11-28 16:38:00,
2013-11-28 17:43:00,35.7,26.2,30.26,West,269,5.8,11.0,68,0.00,SCT,,0.00,0.0,WeatherDisplay:10.37,2013-11-28 16:43:00,
2013-11-28 17:48:00,35.6,26.4,30.26,West,281,6.1,11.0,69,0.00,SCT,,0.00,0.0,WeatherDisplay:10.37,2013-11-28 16:48:00,
2013-11-28 17:53:00,35.6,26.8,30.26,West,276,4.9,9.2,70,0.00,SCT,,0.00,0.0,WeatherDisplay:10.37,2013-11-28 16:53:00,
2013-11-28 17:58:00,35.5,27.0,30.26,West,278,5.9,10.0,71,0.00,SCT,,0.00,0.0,WeatherDisplay:10.37,2013-11-28 16:58:00,
2013-11-28 18:03:00,35.5,27.4,30.26,West,265,5.7,10.4,72,0.00,SCT,,0.00,0.0,WeatherDisplay:10.37,2013-11-28 17:03:00,
2013-11-28 18:08:00,35.4,27.3,30.26,West,271,10.2,17.0,72,0.00,SCT,,0.00,0.0,WeatherDisplay:10.37,2013-11-28 17:08:00,
2013-11-28 18:13:00,35.4,27.6,30.26,West,273,4.8,8.1,73,0.00,SCT,,0.00,0.0,WeatherDisplay:10.37,2013-11-28 17:13:00,
2013-11-28 18:18:00,35.4,27.9,30.26,West,273,5.6,8.1,74,0.00,SCT,,0.00,0.0,WeatherDisplay:10.37,2013-11-28 17:18:00,
2013-11-28 18:23:00,35.3,27.8,30.26,WNW,296,4.9,10.4,74,0.00,SCT,,0.00,0.0,WeatherDisplay:10.37,2013-11-28 17:23:00,
2013-11-28 18:28:00,35.3,28.2,30.26,West,275,7.7,10.0,75,0.00,SCT,,0.00,0.0,WeatherDisplay:10.37,2013-11-28 17:28:00,
2013-11-28 18:33:00,35.3,28.8,30.26,West,269,7.3,13.8,77,0.00,SCT,,0.00,0.0,WeatherDisplay:10.37,2013-11-28 17:33:00,
2013-11-28 18:38:00,35.2,29.0,30.26,WNW,296,6.5,12.7,78,0.00,SCT,,0.00,0.0,WeatherDisplay:10.37,2013-11-28 17:38:00,
2013-11-28 18:43:00,35.1,29.2,30.26,WSW,252,5.7,11.5,79,0.00,SCT,,0.00,0.0,WeatherDisplay:10.37,2013-11-28 17:43:00,
2013-11-28 18:48:00,35.1,29.2,30.26,West,261,8.4,11.5,79,0.00,SCT,,0.00,0.0,WeatherDisplay:10.37,2013-11-28 17:48:00,
2013-11-28 18:53:00,34.9,29.4,30.26,West,277,4.9,11.0,80,0.00,SCT,,0.00,0.0,WeatherDisplay:10.37,2013-11-28 17:53:00,
2013-11-28 18:58:00,34.8,29.6,30.26,West,277,1.0,9.2,81,0.00,SCT,,0.00,0.0,WeatherDisplay:10.37,2013-11-28 17:58:00,
2013-11-28 19:03:00,34.7,29.8,30.26,WNW,300,4.2,8.1,82,0.00,SCT,,0.00,0.0,WeatherDisplay:10.37,2013-11-28 18:03:00,
2013-11-28 19:08:00,34.6,29.7,30.26,WNW,282,3.2,8.1,82,0.00,SCT,,0.00,0.0,WeatherDisplay:10.37,2013-11-28 18:08:00,
2013-11-28 19:13:00,34.5,29.9,30.26,West,272,5.8,9.0,83,0.00,SCT,,0.00,0.0,WeatherDisplay:10.37,2013-11-28 18:13:00,
2013-11-28 19:18:00,34.4,29.8,30.25,WSW,252,4.9,10.4,83,0.00,SCT,,0.00,0.0,WeatherDisplay:10.37,2013-11-28 18:18:00,
2013-11-28 19:23:00,34.4,30.1,30.25,WSW,252,4.8,9.2,84,0.00,SCT,,0.00,0.0,WeatherDisplay:10.37,2013-11-28 18:23:00,
2013-11-28 19:28:00,34.3,30.0,30.25,WNW,282,3.7,9.2,84,0.00,SCT,,0.00,0.0,WeatherDisplay:10.37,2013-11-28 18:28:00,
2013-11-28 19:33:00,34.3,30.3,30.25,WNW,286,3.1,8.0,85,0.00,SCT,,0.00,0.0,WeatherDisplay:10.37,2013-11-28 18:33:00,
2013-11-28 19:38:00,34.2,30.2,30.25,WNW,284,1.3,6.9,85,0.00,SCT,,0.00,0.0,WeatherDisplay:10.37,2013-11-28 18:38:00,
2013-11-28 19:43:00,34.2,30.2,30.25,West,265,3.8,9.2,85,0.00,SCT,,0.00,0.0,WeatherDisplay:10.37,2013-11-28 18:43:00,
2013-11-28 19:48:00,34.1,30.4,30.25,WSW,250,7.2,12.7,86,0.00,SCT,,0.00,0.0,WeatherDisplay:10.37,2013-11-28 18:48:00,
2013-11-28 19:53:00,34.1,30.4,30.25,WSW,253,4.1,6.0,86,0.00,SCT,,0.00,0.0,WeatherDisplay:10.37,2013-11-28 18:53:00,
2013-11-28 19:58:00,34.0,30.3,30.25,West,275,3.5,9.2,86,0.00,SCT,,0.00,0.0,WeatherDisplay:10.37,2013-11-28 18:58:00,
2013-11-28 20:03:00,34.0,30.5,30.25,WSW,253,5.8,8.0,87,0.00,SCT,,0.00,0.0,WeatherDisplay:10.37,2013-11-28 19:03:00,
2013-11-28 20:09:00,33.9,30.4,30.25,West,263,4.8,8.1,87,0.00,SCT,,0.00,0.0,WeatherDisplay:10.37,2013-11-28 19:09:00,
2013-11-28 20:14:00,33.9,30.4,30.24,West,276,4.2,6.9,87,0.00,SCT,,0.00,0.0,WeatherDisplay:10.37,2013-11-28 19:14:00,
2013-11-28 20:19:00,33.9,30.7,30.24,West,277,4.4,6.9,88,0.00,SCT,,0.00,0.0,WeatherDisplay:10.37,2013-11-28 19:19:00,
2013-11-28 20:24:00,33.8,30.6,30.24,WNW,293,5.9,9.2,88,0.00,SCT,,0.00,0.0,WeatherDisplay:10.37,2013-11-28 19:24:00,
2013-11-28 20:29:00,33.8,30.6,30.24,West,277,7.7,12.0,88,0.00,SCT,,0.00,0.0,WeatherDisplay:10.37,2013-11-28 19:29:00,
2013-11-28 20:34:00,33.8,30.6,30.24,WNW,283,5.8,9.2,88,0.00,SCT,,0.00,0.0,WeatherDisplay:10.37,2013-11-28 19:34:00,
2013-11-28 20:39:00,33.8,30.9,30.24,WNW,291,3.6,8.1,89,0.00,SCT,,0.00,0.0,WeatherDisplay:10.37,2013-11-28 19:39:00,
2013-11-28 20:44:00,33.8,30.9,30.24,West,262,5.1,9.2,89,0.00,SCT,,0.00,0.0,WeatherDisplay:10.37,2013-11-28 19:44:00,
2013-11-28 20:49:00,33.8,30.9,30.24,SW,236,6.4,11.0,89,0.00,SCT,,0.00,0.0,WeatherDisplay:10.37,2013-11-28 19:49:00,
2013-11-28 20:54:00,33.8,30.9,30.24,West,267,3.1,8.0,89,0.00,SCT,,0.00,0.0,WeatherDisplay:10.37,2013-11-28 19:54:00,
2013-11-28 20:59:00,33.9,31.0,30.24,WSW,256,6.4,12.7,89,0.00,SCT,,0.00,0.0,WeatherDisplay:10.37,2013-11-28 19:59:00,
2013-11-28 21:04:00,33.9,31.0,30.24,West,276,2.5,8.1,89,0.00,SCT,,0.00,0.0,WeatherDisplay:10.37,2013-11-28 20:04:00,
2013-11-28 21:09:00,34.0,31.1,30.23,NNW,338,4.4,8.1,89,0.00,SCT,,0.00,0.0,WeatherDisplay:10.37,2013-11-28 20:09:00,
2013-11-28 21:14:00,34.0,31.1,30.23,WNW,293,3.7,6.9,89,0.00,SCT,,0.00,0.0,WeatherDisplay:10.37,2013-11-28 20:14:00,
2013-11-28 21:19:00,34.1,31.2,30.23,NW,313,4.3,8.1,89,0.00,SCT,,0.00,0.0,WeatherDisplay:10.37,2013-11-28 20:19:00,
2013-11-28 21:24:00,34.3,31.4,30.23,NW,307,7.3,12.7,89,0.00,SCT,,0.00,0.0,WeatherDisplay:10.37,2013-11-28 20:24:00,
2013-11-28 21:29:00,34.3,31.1,30.23,WNW,301,4.2,8.1,88,0.00,SCT,,0.00,0.0,WeatherDisplay:10.37,2013-11-28 20:29:00,
2013-11-28 21:34:00,34.4,31.2,30.23,WSW,241,5.7,11.5,88,0.00,SCT,,0.00,0.0,WeatherDisplay:10.37,2013-11-28 20:34:00,
2013-11-28 21:39:00,34.4,31.2,30.23,WNW,292,8.4,13.0,88,0.00,SCT,,0.00,0.0,WeatherDisplay:10.37,2013-11-28 20:39:00,
2013-11-28 21:44:00,34.5,31.3,30.23,WNW,284,5.1,11.5,88,0.00,SCT,,0.00,0.0,WeatherDisplay:10.37,2013-11-28 20:44:00,
2013-11-28 21:49:00,34.6,31.4,30.23,WNW,287,7.3,14.0,88,0.00,SCT,,0.00,0.0,WeatherDisplay:10.37,2013-11-28 20:49:00,
2013-11-28 21:54:00,34.6,31.4,30.23,NNW,334,5.1,8.0,88,0.00,SCT,,0.00,0.0,WeatherDisplay:10.37,2013-11-28 20:54:00,
2013-11-28 21:59:00,34.6,31.4,30.23,WNW,287,6.9,13.0,88,0.00,SCT,,0.00,0.0,WeatherDisplay:10.37,2013-11-28 20:59:00,
2013-11-28 22:04:00,34.7,31.5,30.23,WNW,294,5.8,10.4,88,0.00,SCT,,0.00,0.0,WeatherDisplay:10.37,2013-11-28 21:04:00,
2013-11-28 22:09:00,34.7,31.5,30.23,NW,325,8.7,11.0,88,0.00,SCT,,0.00,0.0,WeatherDisplay:10.37,2013-11-28 21:09:00,
2013-11-28 22:14:00,34.8,31.6,30.23,WNW,302,6.2,10.0,88,0.00,SCT,,0.00,0.0,WeatherDisplay:10.37,2013-11-28 21:14:00,
2013-11-28 22:19:00,34.8,31.3,30.23,WNW,284,5.7,8.0,87,0.00,SCT,,0.00,0.0,WeatherDisplay:10.37,2013-11-28 21:19:00,
2013-11-28 22:24:00,34.8,31.3,30.23,NW,305,5.7,10.0,87,0.00,SCT,,0.00,0.0,WeatherDisplay:10.37,2013-11-28 21:24:00,
2013-11-28 22:29:00,34.8,31.3,30.23,NNW,339,6.4,10.0,87,0.00,SCT,,0.00,0.0,WeatherDisplay:10.37,2013-11-28 21:29:00,
2013-11-28 22:34:00,34.8,31.3,30.23,West,277,1.3,8.1,87,0.00,SCT,,0.00,0.0,WeatherDisplay:10.37,2013-11-28 21:34:00,
2013-11-28 22:39:00,34.8,31.3,30.23,NW,313,3.1,10.4,87,0.00,SCT,,0.00,0.0,WeatherDisplay:10.37,2013-11-28 21:39:00,
2013-11-28 22:44:00,34.7,31.2,30.23,NW,324,3.7,8.1,87,0.00,SCT,,0.00,0.0,WeatherDisplay:10.37,2013-11-28 21:44:00,
2013-11-28 22:49:00,34.7,31.2,30.23,WNW,285,4.8,10.0,87,0.00,SCT,,0.00,0.0,WeatherDisplay:10.37,2013-11-28 21:49:00,
2013-11-28 22:54:00,34.7,31.2,30.23,NW,305,1.9,6.9,87,0.00,SCT,,0.00,0.0,WeatherDisplay:10.37,2013-11-28 21:54:00,
2013-11-28 22:59:00,34.7,31.2,30.22,NW,317,3.9,9.2,87,0.00,SCT,,0.00,0.0,WeatherDisplay:10.37,2013-11-28 21:59:00,
2013-11-28 23:04:00,34.7,31.2,30.23,NW,324,3.2,8.1,87,0.00,SCT,,0.00,0.0,WeatherDisplay:10.37,2013-11-28 22:04:00,
2013-11-28 23:09:00,34.8,31.3,30.23,NNE,28,4.9,10.0,87,0.00,SCT,,0.00,0.0,WeatherDisplay:10.37,2013-11-28 22:09:00,
2013-11-28 23:14:00,34.9,31.4,30.23,NW,311,4.3,8.1,87,0.00,SCT,,0.00,0.0,WeatherDisplay:10.37,2013-11-28 22:14:00,
2013-11-28 23:19:00,34.9,31.4,30.24,NNW,336,5.2,10.4,87,0.00,SCT,,0.00,0.0,WeatherDisplay:10.37,2013-11-28 22:19:00,
2013-11-28 23:24:00,35.0,31.5,30.24,NW,323,1.1,4.6,87,0.00,SCT,,0.00,0.0,WeatherDisplay:10.37,2013-11-28 22:24:00,
2013-11-28 23:29:00,34.9,31.1,30.23,West,276,3.8,6.0,86,0.00,SCT,,0.00,0.0,WeatherDisplay:10.37,2013-11-28 22:29:00,
2013-11-28 23:34:00,34.9,31.1,30.24,NW,315,1.4,3.5,86,0.00,SCT,,0.00,0.0,WeatherDisplay:10.37,2013-11-28 22:34:00,
2013-11-28 23:39:00,34.9,31.1,30.23,NW,319,3.9,8.0,86,0.00,SCT,,0.00,0.0,WeatherDisplay:10.37,2013-11-28 22:39:00,
2013-11-28 23:44:00,35.0,31.5,30.23,West,281,4.2,6.9,87,0.00,SCT,,0.00,0.0,WeatherDisplay:10.37,2013-11-28 22:44:00,
2013-11-28 23:49:00,35.1,31.3,30.23,WNW,286,1.2,3.5,86,0.00,SCT,,0.00,0.0,WeatherDisplay:10.37,2013-11-28 22:49:00,
2013-11-28 23:54:00,35.1,31.3,30.23,WNW,302,0.4,4.0,86,0.00,SCT,,0.00,0.0,WeatherDisplay:10.37,2013-11-28 22:54:00,
2013-11-28 23:59:00,35.1,31.3,30.23,West,277,1.9,4.0,86,0.00,SCT,,0.00,0.0,WeatherDisplay:10.37,2013-11-28 22:59:00,